SNAP 1

Satellite information

Favourite Embed

Satellite Type and Status

PAYLOADIN ORBIT

Key statistics

Satellite SNAP 1 at a glance.

Uptime

9079

Days in orbit

Revolutions

≈ 14.7

Per day

Orbit

SSO

Sun Synchronous Orbit

Inclination

97.7

Latest

Satellite identification and parameters

Extended collection of information and parameters for SNAP 1.

Object identification

Identified? True

Debris? False

Object name: SNAP 1

International designator: 2000-033C

Object number (NORAD): 26386

Object ID (CCSDS): 26386

Country: UNITED KINGDOM (UK)

Current information (Y/N): Y

RCS size: MEDIUM

Orbital parameters

Period: 97.722 minutes

Inclination: 97.7298 deg

SMA: 7027.83 km

Apoapsis: 657.715 km

Periapsis: 641.676 km

RAAN: 126.679 deg

Eccentricy: 0.0011411

Argument of periapsis: 132.5407 deg

Mean anomaly: 227.6768 deg

Mean motion: 14.7357038 rev/day

Mean motion (dot): 0.00001707 rev/day2

B* drag term: 0.00026929 1/REarth

Two-line elements (TLE)

Creation date: May 7, 2025, 3:14 a.m.

Reference frame: TEME

Reference center: EARTH

Epoch: May 6, 2025, 9:35 p.m. UTC

TLE line 0: 0 SNAP 1

TLE line 1: 1 26386U 00033C 25126.89945359 .00001707 00000-0 26929-3 0 9995

TLE line 2: 2 26386 97.7298 126.6790 0011411 132.5407 227.6768 14.73570380588591

Live tracking on map

Real-time ground track for satellite SNAP 1.

In-orbit conjunctions

There are no conjunctions computed for SNAP 1, at the moment. Check back to stay up to date, as we update our databases every day.

Go to all conjunctions

Associated space launch

Civilian navigation satellite equivalent to the purely military Parus

SNAP 1 was lifted into orbit during the mission ‘Kosmos-3M | Nadezhda 9’, on board a Kosmos-3M space rocket.

The launch took place on June 28, 2000, 10:37 a.m. from 132/1 (132L).

For more information about the launch, click the button.

Launch to space Kosmos-3M | Nadezhda 9
Kosmos-3M | Nadezhda 9

Agency: N/A

Status: Launch Successful

Launch date: June 28, 2000, 10:37 a.m. UTC

Rocket: Kosmos-3M

Launch pad: 132/1 (132L)

Location: Plesetsk Cosmodrome, Russian Federation

...

Latest news about this satellite

There are no fresh news available about this satellite. Check back as we update our databases every day.


Newsletter sign-up

Weekly statistics, charts and insights to help you stay on top of the space industry.